Flag Weather past 2 weeks in Lüdenscheid, North Rhine-Westphalia, Germany

Now
36 °F

Clear.


Feels Like: 32 °F
Forecast: 34 / 44 °F
Wind: 5 mph from South

Location: Dortmund / Wickede

Current Time: Nov 24, 2014 at 9:40:53 PM

Latest Report: Nov 24, 2014 at 9:20 PM


Visibility: 10 mi

Pressure: 30.33 "Hg

Humidity: 87%

Dew point: 32 °F

Location of LüdenscheidLocation

Historic Weather in Lüdenscheid — Graph

°F

Lüdenscheid temperature yesterday

Maximum temperature yesterday: 61 °F (at 11:20 AM)
Minimum temperature yesterday: 48 °F (at 8:50 AM)
Average temperature yesterday: 56 °F

Past Weeks' High & Low Weather Summary

 TemperatureHumidityPressure
High61 °F (Nov 23, 11:20 AM)93% (Nov 11, 7:50 AM)30.33 "Hg (Nov 11, 7:50 AM)
Low32 °F (Nov 21, 5:20 AM)55% (Nov 23, 11:20 AM)29.50 "Hg (Nov 16, 12:50 PM)
Average48 °F81%29.89 "Hg
* Reported Nov 9 8:20 PM — Nov 24 8:20 PM, Lüdenscheid, Weather by CustomWeather, © 2014

Note: Actual official high and low records may vary slightly from our data, if they occured in-between our weather recording intervals... More about our weather records

Advertising

Lüdenscheid weather history for previous 24 hours

 ConditionsComfort  
Time TempWeatherWind HumidityBarometerVisibility
8:20 PM
Nov 24
37 °FClear.6 mph81%30.33 "Hg10 mi
7:50 PM37 °FClear.5 mph87%30.33 "Hg10 mi
7:20 PM36 °FPassing clouds.5 mph81%30.33 "HgN/A
6:50 PM39 °FPassing clouds.5 mph81%30.33 "HgN/A
6:20 PM37 °FClear.5 mph87%30.30 "Hg10 mi
5:50 PM41 °FClear.3 mph81%30.30 "Hg10 mi
5:20 PM41 °FClear.3 mph76%30.30 "Hg10 mi
4:50 PM43 °FClear.5 mph66%30.30 "Hg10 mi
4:20 PM45 °FSunny.3 mph66%30.30 "Hg10 mi
3:50 PM48 °FSunny.5 mph62%30.27 "Hg10 mi
3:20 PM48 °FSunny.7 mph62%30.27 "Hg10 mi
2:50 PM48 °FSunny.8 mph58%30.27 "Hg10 mi
2:20 PM50 °FSunny.6 mph58%30.27 "Hg10 mi
1:50 PM50 °FPassing clouds.6 mph58%30.27 "HgN/A
1:20 PM48 °FSunny.7 mph62%30.27 "Hg10 mi
12:50 PM48 °FSunny.6 mph62%30.27 "Hg10 mi
12:20 PM48 °FPassing clouds.6 mph71%30.27 "HgN/A
11:50 AM46 °FPassing clouds.6 mph76%30.27 "HgN/A
11:20 AM48 °FPassing clouds.6 mph76%30.27 "HgN/A
10:50 AM46 °FSunny.7 mph82%30.27 "Hg10 mi
10:20 AM46 °FPassing clouds.7 mph82%30.24 "HgN/A
9:50 AM46 °FPassing clouds.6 mph82%30.24 "HgN/A
9:20 AM43 °FSunny.6 mph87%30.24 "Hg10 mi
8:50 AM43 °FSunny.5 mph87%30.21 "Hg10 mi
8:20 AM45 °FPartly sunny.8 mph87%30.21 "HgN/A
7:50 AM46 °FPassing clouds.8 mph82%30.18 "HgN/A
7:20 AM46 °FPassing clouds.13 mph82%30.18 "HgN/A
6:50 AM48 °FLight rain. Passing clouds.14 mph87%30.15 "Hg5 mi
6:20 AM48 °FLight rain. Passing clouds.7 mph87%30.12 "Hg5 mi
5:50 AM48 °FLight rain. Passing clouds.5 mph87%30.09 "HgN/A
5:20 AM48 °FPassing clouds.5 mph87%30.09 "HgN/A
10:50 PM
Nov 23
54 °FClear.14 mph67%29.98 "Hg10 mi
10:20 PM54 °FClear.13 mph67%29.98 "Hg10 mi
9:20 PM54 °FClear.15 mph67%29.95 "Hg10 mi
Weather by CustomWeather, © 2014

See weather overviewHow to use our weather pages